Date,TemperatureHighF,TemperatureAvgF,TemperatureLowF,DewpointHighF,DewpointAvgF,DewpointLowF,HumidityHigh,HumidityAvg,HumidityLow,PressureMaxIn,PressureMinIn,WindSpeedMaxMPH,WindSpeedAvgMPH,GustSpeedMaxMPH,PrecipitationSumIn
2013-1-1,36,28,21,20,14,11,72,58,41,29.97,29.85,9,3,14,0.01
2013-1-2,35,24,13,12,9,4,70,54,31,30.01,29.89,5,2,9,0.00
2013-1-3,36,24,14,15,10,4,71,54,40,30.08,29.95,4,1,7,0.00
2013-1-4,35,22,10,13,6,1,71,52,32,30.07,29.92,5,2,9,0.00
2013-1-5,41,28,14,10,6,1,60,41,27,30.10,29.97,5,1,9,0.00
2013-1-6,45,28,13,15,8,2,63,44,27,30.12,29.89,4,1,6,0.00
2013-1-7,51,36,28,21,14,10,50,41,28,29.89,29.74,5,1,10,0.00
2013-1-8,49,35,25,17,14,10,61,43,23,30.01,29.75,8,4,12,0.00
2013-1-9,52,36,24,16,13,9,57,40,24,30.16,29.93,7,2,9,0.00
2013-1-10,50,35,21,21,14,8,60,44,28,29.93,29.56,6,2,9,0.00
2013-1-11,42,34,24,24,8,-6,56,34,20,29.71,29.46,16,7,24,0.00
2013-1-12,36,22,12,2,-4,-9,47,33,20,29.78,29.64,8,3,13,0.00
2013-1-13,34,21,8,7,-2,-8,50,37,27,29.86,29.72,5,1,9,0.00
2013-1-14,31,21,15,21,9,-4,83,58,38,29.85,29.72,8,2,12,0.01
2013-1-15,24,15,5,5,1,-4,69,54,38,30.08,29.85,8,2,12,0.01
2013-1-16,38,24,10,16,8,0,66,50,37,30.16,30.04,6,2,10,0.00
2013-1-17,48,31,17,20,14,8,70,51,31,30.24,30.12,4,2,5,0.00
2013-1-18,51,34,19,23,16,10,71,50,31,30.14,29.99,3,1,5,0.00
2013-1-19,52,36,26,21,17,14,65,47,23,30.13,30.02,6,2,10,0.00
2013-1-20,52,37,22,20,15,9,62,42,22,30.09,29.93,5,2,11,0.00
2013-1-21,53,37,21,18,13,7,57,38,21,30.08,29.95,6,2,10,0.00
2013-1-22,57,40,24,21,14,9,60,38,17,30.09,29.98,4,1,6,0.00
2013-1-23,58,40,24,20,13,8,59,35,17,30.15,30.04,4,2,7,0.00
2013-1-24,63,45,26,35,18,8,52,36,19,30.08,29.94,7,2,11,0.00
2013-1-25,59,48,37,39,33,26,67,55,46,30.06,29.94,4,1,5,0.00
2013-1-26,58,48,42,48,39,33,79,70,61,29.95,29.72,8,2,16,0.12
2013-1-27,62,50,41,41,37,33,81,63,36,29.81,29.71,11,4,15,0.01
2013-1-28,57,46,39,39,33,19,79,60,37,29.74,29.56,11,5,22,0.01
2013-1-29,39,33,28,21,14,4,62,47,28,29.76,29.54,17,7,29,0.01
2013-1-30,41,32,23,16,14,8,65,48,30,29.97,29.76,13,5,20,0.00
2013-1-31,52,42,22,24,20,13,72,44,27,30.05,29.95,11,3,14,0.00
2013-2-1,55,40,23,27,19,14,70,47,23,30.05,29.94,9,2,17,0.00
2013-2-2,56,42,28,23,19,15,62,41,24,30.14,30.04,5,1,8,0.00
2013-2-3,54,43,30,30,21,16,57,43,26,30.07,29.80,6,1,8,0.00
2013-2-4,57,45,33,29,25,20,68,47,27,29.92,29.80,8,3,11,0.00
2013-2-5,59,44,31,24,19,15,60,40,20,29.90,29.78,5,2,7,0.00
2013-2-6,62,45,27,29,21,13,59,39,26,29.81,29.67,8,2,13,0.00
2013-2-7,56,45,31,28,21,16,63,41,21,29.95,29.80,13,3,15,0.00
2013-2-8,60,46,32,26,21,16,55,38,24,29.89,29.59,12,4,16,0.00
2013-2-9,52,39,31,23,15,7,54,38,22,29.65,29.48,18,6,31,0.00
2013-2-10,47,35,27,21,14,9,64,43,25,29.75,29.65,7,3,13,0.00
2013-2-11,52,34,21,23,16,8,70,51,17,29.80,29.68,12,3,16,0.00
2013-2-12,41,33,24,22,13,6,73,47,23,29.95,29.73,12,5,17,0.00
2013-2-13,48,36,23,18,13,8,56,41,27,29.95,29.83,11,4,16,0.00
2013-2-14,51,39,26,21,17,13,62,42,23,29.99,29.84,14,4,20,0.00
2013-2-15,51,40,26,23,13,4,62,38,14,30.12,29.96,16,4,27,0.00
2013-2-16,58,42,25,15,9,1,47,28,11,30.16,29.93,5,2,9,0.00
2013-2-17,61,42,23,14,6,1,41,24,12,29.94,29.55,11,3,21,0.00
2013-2-18,52,42,33,18,-1,-16,45,19,6,29.88,29.63,15,5,18,0.00
2013-2-19,62,42,22,33,6,-10,60,25,11,29.87,29.57,14,4,19,0.00
2013-2-20,55,45,36,33,28,16,71,53,25,29.58,29.37,13,5,24,0.00
2013-2-21,47,37,29,28,23,18,79,60,35,29.69,29.41,10,4,14,0.10
2013-2-22,47,36,30,26,21,12,67,54,30,29.83,29.68,9,3,18,0.01
2013-2-23,50,36,22,19,14,10,65,42,25,29.85,29.53,9,2,14,0.00
2013-2-24,41,35,28,24,16,4,84,48,25,29.69,29.48,16,7,23,0.00
2013-2-25,48,36,25,24,13,3,83,43,16,29.85,29.69,12,3,17,0.02
2013-2-26,48,35,23,19,7,-5,59,34,14,29.87,29.63,20,6,26,0.01
2013-2-27,47,33,21,13,7,3,53,34,18,30.03,29.87,8,2,15,0.00
2013-2-28,54,39,25,12,6,0,40,27,12,30.07,29.96,14,4,20,0.00
2013-3-1,59,46,31,21,14,6,39,29,19,30.13,30.00,10,4,16,0.00
2013-3-2,67,50,33,26,21,16,55,34,19,30.17,29.97,6,2,10,0.00
2013-3-3,69,53,36,24,18,4,48,28,8,29.98,29.70,12,3,16,0.00
2013-3-4,64,55,47,23,21,18,36,26,18,29.91,29.64,14,5,22,0.00
2013-3-5,64,48,31,25,18,13,62,34,16,30.07,29.91,6,2,8,0.00
2013-3-6,69,55,44,29,23,17,37,29,20,29.97,29.76,8,2,11,0.00
2013-3-7,70,47,36,25,20,16,46,34,18,29.87,29.80,3,1,6,0.00
2013-3-9,49,41,34,34,25,18,74,55,33,29.78,29.61,13,4,16,0.03
2013-3-10,38,37,37,28,27,27,68,67,67,29.78,29.78,3,2,5,0.00
2013-3-11,63,57,50,21,15,10,32,20,12,29.88,29.80,10,6,15,0.00
2013-3-12,69,53,36,27,22,18,52,32,19,30.01,29.88,7,2,11,0.00
2013-3-13,70,54,35,30,23,16,59,33,17,30.12,29.97,8,2,12,0.00
2013-3-14,76,58,42,27,20,16,41,26,11,30.12,29.98,6,2,9,0.00
2013-3-15,81,60,39,26,18,13,39,22,8,30.02,29.77,4,2,7,0.00
2013-3-16,77,62,49,34,22,14,45,22,13,29.78,29.61,12,4,18,0.00
2013-3-17,71,56,44,37,22,-7,57,33,5,29.74,29.55,15,5,22,0.00
2013-3-18,68,54,37,15,9,4,31,18,8,29.81,29.68,13,4,22,0.00
2013-3-19,65,51,41,19,12,5,29,21,13,29.99,29.79,10,2,18,0.00
2013-3-20,68,52,33,26,19,11,46,28,17,30.02,29.71,6,2,12,0.00
2013-3-21,72,60,50,33,20,1,43,24,6,29.71,29.50,17,6,25,0.00
2013-3-22,69,53,36,26,14,8,35,22,11,29.66,29.48,14,4,22,0.00
2013-3-23,51,42,32,26,5,-13,48,24,9,29.87,29.56,21,8,29,0.00
2013-3-24,54,40,24,2,-4,-10,27,16,10,29.88,29.71,12,4,18,0.00
2013-3-25,58,42,25,12,7,-2,40,24,15,29.97,29.84,13,2,17,0.00
2013-3-26,69,50,30,16,11,4,37,22,11,29.97,29.76,8,4,13,0.00
2013-3-27,77,61,45,19,14,8,28,17,10,29.89,29.78,9,3,14,0.00
2013-3-28,77,63,47,23,17,11,27,17,9,29.94,29.83,9,3,20,0.00
2013-3-29,78,62,46,26,21,16,38,22,10,29.97,29.85,8,2,12,0.00
2013-3-30,77,60,41,27,20,-100,40,24,12,29.97,29.80,8,2,15,0.00
2013-3-31,76,63,49,34,27,23,39,27,17,29.92,29.77,8,2,12,0.00
2013-4-1,80,64,48,28,20,7,38,21,7,29.87,29.67,10,3,16,0.02
2013-4-2,72,59,48,24,18,8,31,21,9,29.79,29.64,15,4,22,0.02
2013-4-3,69,54,39,31,26,21,63,38,17,29.92,29.79,11,3,15,0.00
2013-4-4,76,58,40,30,22,13,56,29,10,30.00,29.86,5,2,9,0.00
2013-4-5,82,66,53,20,16,10,23,16,8,29.89,29.64,10,4,17,0.00
2013-4-6,79,65,49,28,22,17,36,20,10,29.82,29.65,8,3,14,0.00
2013-4-7,78,66,50,29,21,15,36,19,10,29.74,29.59,12,4,19,0.00
2013-4-8,80,66,51,29,22,13,34,20,8,29.61,29.26,12,5,24,0.00
2013-4-9,56,48,42,35,31,27,73,53,35,29.65,29.28,11,4,15,0.08
2013-4-10,52,43,37,34,27,20,80,54,38,29.76,29.65,12,4,16,0.01
2013-4-11,65,49,31,31,24,17,62,40,23,29.76,29.62,13,5,19,0.00
2013-4-12,73,58,43,35,29,25,56,36,19,29.75,29.64,8,2,13,0.00
2013-4-13,79,62,42,31,23,15,52,26,10,29.73,29.51,12,4,19,0.00
2013-4-14,82,67,56,27,23,19,29,20,11,29.57,29.46,15,8,21,0.00
2013-4-15,86,66,48,27,20,10,34,19,6,29.61,29.44,12,4,22,0.00
2013-4-16,83,68,52,27,17,5,27,16,5,29.66,29.49,14,5,19,0.00
2013-4-17,67,55,42,28,19,9,38,26,13,29.77,29.51,15,6,19,0.00
2013-4-18,50,42,32,18,7,0,39,25,14,29.97,29.77,15,7,22,0.00
2013-4-19,67,48,28,10,6,3,35,20,8,30.05,29.78,5,2,12,0.00
2013-4-20,71,58,44,21,9,-1,25,15,11,29.83,29.67,17,4,20,0.00
2013-4-21,77,59,40,26,18,5,42,23,7,29.93,29.78,10,3,15,0.00
2013-4-22,86,67,48,22,16,8,30,16,6,29.83,29.62,13,5,17,0.00
2013-4-23,71,59,47,30,18,-10,47,22,6,29.89,29.66,18,6,24,0.00
2013-4-24,74,52,31,21,17,11,54,29,12,29.96,29.81,6,2,8,0.00
2013-4-25,81,62,49,32,25,16,38,25,12,29.92,29.66,13,4,20,0.00
2013-4-26,78,63,47,31,20,2,45,24,5,29.99,29.83,9,3,15,0.00
2013-4-27,81,64,46,30,16,-8,45,22,3,30.02,29.85,6,2,10,0.00
2013-4-28,89,65,44,19,9,-6,29,13,3,29.91,29.70,7,2,12,0.00
2013-4-29,90,70,47,22,16,13,30,15,6,29.78,29.58,11,3,17,0.00
2013-4-30,91,73,58,27,17,8,28,14,5,29.70,29.57,13,4,20,0.00
2013-5-1,88,72,56,24,14,-2,29,12,5,29.97,29.65,12,5,17,0.00
2013-5-2,75,54,41,28,19,13,49,28,11,30.22,29.97,14,4,19,0.00
2013-5-3,76,54,35,20,15,11,40,23,10,30.14,29.79,7,3,11,0.00
2013-5-4,83,63,43,21,13,9,32,16,6,29.81,29.69,19,5,27,0.00
2013-5-5,78,64,53,32,21,10,26,19,12,29.93,29.78,22,10,33,0.00
2013-5-6,78,65,55,39,27,18,40,24,16,29.83,29.76,14,4,19,0.00
2013-5-7,82,66,49,35,30,24,49,28,12,29.85,29.68,10,3,16,0.00
2013-5-8,77,63,49,34,26,18,50,28,11,29.84,29.73,10,3,16,0.00
2013-5-9,79,63,48,34,25,19,38,25,14,29.91,29.77,9,3,13,0.00
2013-5-10,73,60,51,43,34,-100,56,41,26,30.05,29.88,10,3,18,0.01
2013-5-11,76,60,46,43,37,-100,79,47,22,30.08,30.02,13,3,20,0.01
2013-5-12,86,65,46,36,33,29,59,34,15,30.09,29.92,6,2,13,0.00
2013-5-13,94,72,53,37,31,27,45,25,10,30.05,29.89,7,2,11,0.00
2013-5-14,92,72,56,45,28,17,39,21,10,29.92,29.71,11,3,19,0.00
2013-5-15,90,74,63,43,36,23,43,28,11,29.81,29.63,10,2,17,0.00
2013-5-16,96,69,58,29,7,-100,28,15,5,29.81,29.64,13,3,15,0.00
2013-5-17,92,73,55,28,18,-100,29,16,7,29.80,29.63,11,3,21,0.00
2013-5-18,83,72,57,30,22,13,27,15,10,29.77,29.59,10,4,15,0.00
2013-5-19,79,66,57,35,31,21,42,28,12,29.72,29.62,15,5,19,0.00
2013-5-20,83,65,52,35,29,3,46,29,5,29.74,29.58,15,5,23,0.00
2013-5-21,85,66,48,36,30,22,49,29,10,29.79,29.61,9,2,16,0.00
2013-5-22,92,74,53,30,23,11,39,18,6,29.69,29.55,7,2,13,0.00
2013-5-23,97,78,57,41,21,12,29,14,5,29.74,29.58,9,3,16,0.00
2013-5-24,97,77,61,44,33,20,45,24,7,29.83,29.65,9,3,13,0.00
2013-5-25,102,78,56,40,23,2,32,15,3,29.81,29.61,9,3,13,0.00
2013-5-26,98,77,57,27,17,-6,25,12,2,29.79,29.61,7,2,13,0.00
2013-5-27,89,74,59,25,16,-2,23,12,3,29.74,29.53,10,3,19,0.00
2013-5-28,72,72,72,23,23,23,16,16,16,29.59,29.59,1,1,2,0.00
2013-5-29,86,79,66,37,21,10,34,13,6,29.51,29.41,10,6,10,0.00
2013-5-30,71,71,71,16,16,16,12,12,12,29.50,29.50,5,5,5,0.00
2013-5-31,74,72,70,7,6,5,8,7,7,29.81,29.80,11,9,17,0.00
2013-6-1,105,74,53,30,11,-10,23,11,2,29.92,29.81,17,4,25,0.00
2013-6-2,94,77,65,44,36,30,34,24,15,29.93,29.72,21,7,30,0.00
2013-6-3,102,80,65,50,37,12,47,27,5,29.86,29.67,10,3,15,0.00
2013-6-4,108,81,59,31,21,-1,27,13,2,29.85,29.70,10,3,22,0.00
2013-6-5,96,81,65,46,33,19,31,19,7,29.85,29.71,11,3,27,0.00
2013-6-6,96,76,57,45,39,28,50,30,10,29.89,29.74,15,3,23,0.00
2013-6-7,97,77,61,50,43,28,59,34,10,29.89,29.65,16,3,26,0.00
2013-6-8,99,81,63,45,35,21,46,24,7,29.78,29.63,12,4,21,0.00
2013-6-9,110,84,68,47,43,30,44,26,10,29.89,29.74,7,3,11,0.00
2013-6-10,103,84,73,47,42,30,38,26,8,29.83,29.63,5,3,8,0.00
2013-8-4,91,79,68,61,56,49,78,50,25,29.99,29.85,7,5,12,0.31
2013-8-5,91,75,64,62,58,54,82,60,31,29.99,29.83,8,2,12,0.33
2013-8-6,93,78,67,57,54,49,60,45,24,29.92,29.83,8,2,16,0.00
2013-8-7,87,73,63,58,54,52,72,54,32,29.91,29.82,10,3,16,0.01
2013-8-8,89,75,64,56,51,42,70,47,22,29.92,29.81,11,4,16,0.01
2013-8-9,93,76,61,52,47,41,61,39,17,29.97,29.89,6,2,10,0.00
2013-8-10,89,74,64,55,51,45,65,47,29,30.08,29.96,10,4,17,0.01
2013-8-11,87,73,62,56,54,49,78,54,28,30.09,29.91,6,2,11,0.01
2013-8-21,91,77,64,60,56,51,79,51,31,29.97,29.85,5,2,11,0.01
2013-8-22,93,81,65,56,50,43,60,37,25,29.97,29.84,5,2,9,0.00
2013-8-23,89,76,61,52,47,41,55,36,26,29.97,29.83,8,3,17,0.00
2013-8-24,88,75,68,59,51,-100,66,45,31,29.99,29.87,7,3,13,0.03
2013-8-25,86,74,68,63,58,56,73,59,38,30.03,29.96,12,2,12,0.08
2013-8-26,91,77,63,61,57,49,82,54,31,30.04,29.91,5,2,9,0.03
2013-8-27,88,73,64,57,52,49,68,50,31,29.98,29.93,7,2,10,0.00
2013-10-2,82,64,46,34,31,25,55,31,13,29.90,29.75,4,2,9,0.00
2013-10-3,80,66,49,40,33,30,58,32,17,29.80,29.62,7,3,10,0.00
2013-10-4,63,57,49,34,22,10,44,27,15,29.95,29.69,16,7,19,0.00
2013-10-5,62,51,40,23,20,16,50,30,17,30.06,29.96,11,4,16,0.00
2013-10-6,70,53,37,27,23,20,52,33,17,30.11,29.98,4,2,7,0.00
2013-10-7,76,56,39,31,26,23,57,34,14,30.07,29.90,4,2,8,0.00
2013-10-8,80,65,49,34,30,26,47,29,17,29.91,29.70,6,3,12,0.00
2013-10-9,78,63,47,37,33,29,55,34,18,29.80,29.69,8,3,13,0.00
2013-10-10,72,59,45,47,36,28,69,43,26,29.81,29.61,16,5,24,0.10
2013-10-15,68,52,39,35,28,22,54,39,28,29.92,29.76,21,7,35,0.00
2013-10-16,62,53,45,37,29,14,62,42,21,29.95,29.82,18,4,25,0.00
2013-10-17,66,49,34,25,22,17,57,36,19,29.94,29.77,5,2,9,0.00
2013-10-18,63,50,36,24,19,14,57,31,16,29.97,29.78,14,3,18,0.00
2013-10-19,65,48,33,29,21,-100,72,40,19,30.00,29.85,4,2,7,0.00
2013-10-20,71,55,36,25,19,14,50,27,12,29.88,29.71,9,2,13,0.00
2013-10-21,64,53,41,33,27,18,53,38,25,29.98,29.81,6,2,10,0.00
2013-10-22,47,47,47,26,26,26,44,44,44,29.98,29.98,0,0,0,0.00
2013-10-23,55,54,51,28,28,27,40,36,34,29.94,29.93,2,1,3,0.00
2013-10-24,75,57,40,44,31,27,60,40,22,30.02,29.89,5,1,12,0.01
2013-10-25,66,56,48,49,44,38,86,65,46,30.04,29.92,6,3,14,0.07
2013-10-26,69,52,40,45,39,34,84,63,36,30.08,29.98,6,1,9,0.01
2013-10-27,69,56,40,42,36,33,77,51,30,30.03,29.76,5,2,8,0.00
2013-10-28,70,56,46,43,32,-100,71,45,21,29.79,29.69,6,2,10,0.00
2013-10-29,70,60,50,31,27,23,39,29,19,29.84,29.67,14,4,18,0.00
2013-10-30,63,52,42,38,32,26,60,46,32,29.81,29.64,11,3,15,0.00